This is the latest recevied weather packets stored in our database for station/object WC4PEM-4. If no packets are shown the sender has not sent any weather packets the latest 10 day(s).
| Time | Temp. | Humidity | Pressure | Rain* | Wind** | Luminosity | Snow |
|---|---|---|---|---|---|---|---|
| 1788453073 | 26.67° C | 91% | 1015.2 hPa | 14.73 mm | - | - | - |
| 1788452773 | 26.67° C | 93% | 1015.2 hPa | 14.73 mm | - | - | - |
| 1788452473 | 26.67° C | 93% | 1015.4 hPa | 14.73 mm | - | - | - |
| 1788452284 | 26.67° C | 93% | 1015.4 hPa | 14.73 mm | - | - | - |
| 1788452173 | 26.67° C | 93% | 1015.4 hPa | 14.73 mm | - | - | - |
| 1788452039 | 26.67° C | 93% | 1015.4 hPa | 14.73 mm | - | - | - |
| 1788451873 | 26.67° C | 93% | 1015.4 hPa | 14.73 mm | - | - | - |
| 1788451573 | 26.11° C | 93% | 1015.4 hPa | 14.73 mm | - | - | - |
| 1788451273 | 26.11° C | 94% | 1015.3 hPa | 14.73 mm | - | - | - |
| 1788450973 | 26.11° C | 91% | 1015.3 hPa | 14.73 mm | - | - | - |
| 1788450800 | 26.11° C | 91% | 1015.4 hPa | 14.73 mm | - | - | - |
| 1788450673 | 26.11° C | 91% | 1015.4 hPa | 14.73 mm | - | - | - |
| 1788450373 | 26.11° C | 89% | 1015.4 hPa | 13.97 mm | - | - | - |
| 1788450073 | 26.67° C | 88% | 1015.5 hPa | 8.64 mm | - | - | - |
| 1788449773 | 27.22° C | 87% | 1015.7 hPa | 4.06 mm | - | - | - |
| 1788449473 | 28.33° C | 81% | 1015.4 hPa | 0 mm | - | - | - |
| 1788449173 | 29.44° C | 79% | 1015.4 hPa | 0 mm | - | - | - |
| 1788448873 | 29.44° C | 78% | 1015.3 hPa | 0 mm | - | - | - |
| 1788448573 | 29.44° C | 78% | 1015.2 hPa | 0 mm | - | - | - |
| 1788448425 | 29.44° C | 80% | 1015.2 hPa | 0 mm | - | - | - |
| 1788448273 | 29.44° C | 80% | 1015.2 hPa | 0 mm | - | - | - |
| 1788447973 | 29.44° C | 79% | 1015.4 hPa | 0 mm | - | - | - |
| 1788447673 | 28.89° C | 82% | 1015.4 hPa | 0 mm | - | - | - |
| 1788447373 | 28.89° C | 82% | 1015.2 hPa | 0 mm | - | - | - |
| 1788447073 | 28.89° C | 83% | 1015.2 hPa | 0 mm | - | - | - |
* Rain latest hour (hover to see other rain measurements)
** Current wind speed in m/s (hover to see current wind gust speed)